Weather History for Clearfield, PA

Change the Weather History Date:

Tuesday, February 25, 2014

  Actual Average (KDUJ) Record (KDUJ)
Temperature  
Mean Temperature 20 °F 29 °F  
Max Temperature 23 °F 37 °F 66 °F (2001)
Min Temperature 17 °F 20 °F -1 °F (1963)
Degree Days  
Heating Degree Days 45 36  
Month to date heating degree days 972  
Since 1 July heating degree days 4916  
Cooling Degree Days 0 0  
Month to date cooling degree days 0  
Year to date cooling degree days 0  
Moisture  
Dew Point 10 °F    
Average Humidity 70    
Maximum Humidity 84    
Minimum Humidity 55    
Precipitation  
Precipitation 0.00 in 0.09 in 0.78 in (2011)
Month to date precipitation 2.07  
Sea Level Pressure  
Sea Level Pressure 30.03 in    
Wind  
Wind Speed 8 mph (WSW)    
Max Wind Speed 15 mph    
Max Gust Speed 21 mph    
Visibility 7 miles    
Events Snow    
T = Trace of Precipitation, MM = Missing Value Source: NWS Daily Summary

Daily Weather History Graph

Daily Weather History Graph

Search for Another Location

Airport:

Trip Planner

Search our weather history database for the weather conditions in past years. The results will help you decide how hot, cold, wet, or windy it might be!

Date:

Astronomy

Feb. 25, 2014 Rise Set
Actual Time 6:53 AM EST 6:00 PM EST
Civil Twilight 6:26 AM EST 6:27 PM EST
Nautical Twilight 5:54 AM EST 6:59 PM EST
Astronomical Twilight 5:22 AM EST 7:31 PM EST
Moon 3:48 AM EST (2/25) 2:02 PM EST (2/25)
Length of Visible Light 12h 01m
Length of Day
11h 06m
Waning Crescent, 18% of the Moon is Illuminated
Feb 25
Waning Crescent
Mar 1
New
Mar 8
First Quarter
Mar 16
Full
Mar 23
Last Quarter

Hourly Weather History & Observations

Time (EST) Temp. Windchill Dew Point Humidity Pressure Visibility Wind Dir Wind Speed Gust Speed Precip Events Conditions
12:54 AM 18.0 °F 8.7 °F 9.0 °F 68% 30.09 in 10.0 mi West 6.9 mph - N/A   Clear
1:54 AM 18.0 °F 7.7 °F 8.1 °F 65% 30.09 in 10.0 mi West 8.1 mph - N/A   Clear
2:54 AM 17.1 °F 6.6 °F 7.0 °F 65% 30.06 in 10.0 mi West 8.1 mph - N/A   Clear
3:54 AM 17.1 °F 7.6 °F 7.0 °F 65% 30.05 in 10.0 mi West 6.9 mph - N/A   Partly Cloudy
4:54 AM 17.1 °F 10.0 °F 8.1 °F 68% 30.05 in 10.0 mi WSW 4.6 mph - N/A   Overcast
5:54 AM 17.1 °F 7.6 °F 9.0 °F 71% 30.06 in 10.0 mi SW 6.9 mph - N/A   Overcast
6:54 AM 17.1 °F 7.6 °F 10.9 °F 77% 30.06 in 3.0 mi WSW 6.9 mph - 0.00 in Snow Light Snow
7:15 AM 17.1 °F 7.6 °F 12.0 °F 81% 29.99 in 1.8 mi SW 6.9 mph - 0.00 in Snow Light Snow
7:22 AM 17.1 °F 7.6 °F 12.0 °F 81% 29.99 in 2.5 mi SW 6.9 mph - 0.00 in Snow Light Snow
7:30 AM 17.1 °F 7.6 °F 12.0 °F 81% 29.99 in 4.0 mi SW 6.9 mph - 0.00 in Snow Light Snow
7:54 AM 17.1 °F 7.6 °F 12.9 °F 84% 30.07 in 3.0 mi WSW 6.9 mph - 0.00 in Snow Light Snow
8:02 AM 18.0 °F 7.7 °F 12.9 °F 81% 29.99 in 2.0 mi WSW 8.1 mph - 0.00 in Snow Light Snow
8:10 AM 18.0 °F 8.7 °F 12.9 °F 81% 30.00 in 2.0 mi WSW 6.9 mph - 0.00 in Snow Light Snow
8:42 AM 18.0 °F 6.9 °F 12.9 °F 81% 30.00 in 3.0 mi WSW 9.2 mph - 0.00 in Snow Light Snow
8:54 AM 19.0 °F 9.0 °F 12.0 °F 74% 30.08 in 4.0 mi West 8.1 mph - 0.00 in Snow Light Snow
9:54 AM 19.9 °F 7.9 °F 10.9 °F 68% 30.08 in 4.0 mi West 11.5 mph 19.6 mph 0.00 in Snow Light Snow
10:07 AM 19.9 °F 8.6 °F 10.9 °F 68% 30.01 in 6.0 mi West 10.4 mph - 0.00 in   Overcast
10:54 AM 21.9 °F 9.2 °F 10.9 °F 63% 30.08 in 9.0 mi WSW 13.8 mph - 0.00 in   Overcast
11:54 AM 21.0 °F 9.3 °F 10.9 °F 65% 30.07 in 5.0 mi West 11.5 mph - 0.00 in Snow Light Snow
12:54 PM 21.9 °F 9.2 °F 10.0 °F 60% 30.05 in 10.0 mi WNW 13.8 mph - 0.00 in   Overcast
1:54 PM 21.9 °F 10.4 °F 9.0 °F 58% 30.04 in 10.0 mi West 11.5 mph 18.4 mph 0.00 in   Overcast
2:54 PM 23.0 °F 10.1 °F 9.0 °F 55% 30.03 in 10.0 mi West 15.0 mph 20.7 mph 0.00 in   Overcast
3:54 PM 21.9 °F 10.4 °F 8.1 °F 55% 30.03 in 10.0 mi West 11.5 mph 19.6 mph N/A   Overcast
4:54 PM 21.0 °F 9.3 °F 7.0 °F 55% 30.02 in 10.0 mi WNW 11.5 mph - 0.00 in   Mostly Cloudy
5:54 PM 19.9 °F 10.1 °F 7.0 °F 57% 30.01 in 10.0 mi West 8.1 mph - N/A   Clear
6:54 PM 19.0 °F 11.1 °F 7.0 °F 59% 30.03 in 10.0 mi West 5.8 mph - N/A   Overcast
7:54 PM 19.0 °F 11.1 °F 9.0 °F 65% 30.03 in 10.0 mi West 5.8 mph - 0.00 in   Overcast
8:54 PM 18.0 °F 11.1 °F 10.9 °F 74% 30.01 in 10.0 mi SW 4.6 mph - 0.00 in   Overcast
9:54 PM 18.0 °F 11.1 °F 12.0 °F 78% 29.99 in 8.0 mi SW 4.6 mph - 0.00 in   Overcast
10:54 PM 18.0 °F 12.7 °F 12.9 °F 81% 29.97 in 9.0 mi SW 3.5 mph - 0.00 in   Overcast
11:54 PM 18.0 °F 9.8 °F 14.0 °F 84% 29.95 in 5.0 mi South 5.8 mph - 0.00 in Snow Light Snow